Regional Weather Roundup
Issued by NWS Newport/Morehead, NC

Home | Current Version | Previous Version | Text Only | Print | Product List | Glossary On
Versions: 1 2 3 4 5 6 7 8 9 10 11 12 13 14 15 16 17 18 19 20 21 22 23 24 25 26 27 28 29 30 31 32 33 34 35 36 37 38 39 40 41 42 43 44 45 46 47 48 49 50
000
ASUS42 KMHX 222325
RWRMHX
WEATHER ROUNDUP FOR EASTERN NORTH CAROLINA
NATIONAL WEATHER SERVICE NEWPORT/MOREHEAD CITY NC
700 PM EDT MON MAY 22 2017

NOTE: "FAIR" INDICATES FEW OR NO CLOUDS BELOW 12,000 FEET
WITH NO SIGNIFICANT WEATHER AND/OR OBSTRUCTIONS TO VISIBILITY

NCZ015>017-031-032-045>047-102-103-230000-
NORTH COAST

CITY           SKY/WX    TMP DP  RH WIND       PRES   REMARKS
EDENTON        PTSUNNY   78  68  72 CALM      29.95R
ELIZABETH CITY CLOUDY    75  70  84 NW7       29.93R
KITTY HAWK     NOT AVBL
MANTEO         RAIN      67  65  91 SW7       29.96S

$$

NCZ045>047-081-094-103-104-230000-
CENTRAL COAST

CITY           SKY/WX    TMP DP  RH WIND       PRES   REMARKS
FRISCO         MOSUNNY   77  69  76 S13       29.95S

$$

NCZ095-097-098-100-101-230000-
SOUTHERN COAST

CITY           SKY/WX    TMP DP  RH WIND       PRES   REMARKS
BEAUFORT       CLOUDY    77  72  84 SW15      29.96R
CEDAR ISLAND   NOT AVBL
JACKSONVILLE   NOT AVBL
PINEY ISLAND   CLOUDY   N/A N/A N/A S15G21    29.94S
WILMINGTON     TSTM      69  68  96 NE7       30.00R VSB 3/4


$$

NCZ011>013-027>030-043-044-078>080-089-090>093-098-230000-
COASTAL PLAIN

CITY           SKY/WX    TMP DP  RH WIND       PRES   REMARKS
AHOSKIE          N/A     71  67  87 CALM      29.94F
CLINTON        CLOUDY    74  69  82 CALM      29.96R
ELIZABETHTOWN  RAIN      69  69  99 S5        29.96R
GOLDSBORO      CLOUDY    80  70  70 N5        29.92S
GREENVILLE     PTSUNNY   79  68  69 N3        29.96R
HAVELOCK       CLOUDY    77  69  76 SW10      29.96R
KENANSVILLE    LGT RAIN  73  68  83 SW3       29.96R
KINSTON        CLOUDY    81  66  61 N5        29.94R
NEW BERN       LGT RAIN  72  65  78 N7        29.98R
RICHLANDS      LGT RAIN  70  68  93 S7        29.95R
ROCKY MOUNT    CLOUDY    77  69  76 NW3       29.94S
WASHINGTON     CLOUDY    78  67  69 NW6       29.94R
WHITEVILLE     HVY RAIN  67  66  96 CALM      29.99S VSB 1/2

$$

AMZ130-135-150-152-154-156-158-170-250-252-270-ANZ085-086-088-633-658-670-230000-
MARINE OBSERVATIONS

STATION/POSITION TIME  TEMP    WIND        PRES    WAVE   SWELL
                       AIR SEA DIR/SP/G            HT/PER HT/PER
                 (UTC) (F)     (DEG/KT/KT) (MB)    (FT/S) (FT/S)
CHESAPEAKE LIGHT NOT AVBL
64 E VA BEACH    2250   71 69  190/ 16/ 19 1013.6    4/ 8   3/ 8
DUCK             2300   68 66  150/  8/ 11 1013.0
2 E DUCK         2300      66                N/A     4/10
OREGON INLET     2300   65 76  300/  4/  9 1014.9
13E OREGON INLT  2248      66                N/A     3/ 8   2/ 8
HATTERAS CG      2300   76 75  190/  5/  9 1014.1
DIAMOND BUOY     2250   78 78  200/ 14/ 17 1014.0    4/ 8   3/ 8
CAPE LOOKOUT     2300   76     220/ 10/ 13 1014.3
BEAUFORT LAB     2300   76 74  210/ 10/ 15 1013.7
30 SE NEW RVR IN 2308   77 77  230/ 14/ 19 1014.8
30 SE NEW RVR IN 2313      77                N/A     4/ 8
27 SE WRIGHTSVLE 2308   76 76  200/ 14/ 19 1014.6
5 SE WRIGHTSVLE  2308   76 76  200/  8/ 14 1014.9
225 S CAPE HAT   2250   76 78  200/  8/ 10 1016.9    3/ 8   3/ 8
41 SE CHARLESTON 2310   78 78  180/ 10/ 12 1014.3

$$




USA.gov is the U.S. government's official web portal to all federal, state and local government web resources and services.